Year,Month,Day,Hour,Minute,Value (Times are PST for temperature in C)
2010,08,17,00,00,14.30
2010,08,17,00,01,14.30
2010,08,17,00,02,14.30
2010,08,17,00,03,14.40
2010,08,17,00,04,14.40
2010,08,17,00,05,14.40
2010,08,17,00,06,14.40
2010,08,17,00,07,14.40
2010,08,17,00,08,14.40
2010,08,17,00,09,14.40
2010,08,17,00,10,14.50
2010,08,17,00,11,14.50
2010,08,17,00,12,14.50
2010,08,17,00,13,14.60
2010,08,17,00,14,14.60
2010,08,17,00,15,14.60
2010,08,17,00,16,14.60
2010,08,17,00,17,14.70
2010,08,17,00,18,14.70
2010,08,17,00,19,14.70
2010,08,17,00,20,14.80
2010,08,17,00,21,14.80
2010,08,17,00,22,14.80
2010,08,17,00,23,14.80
2010,08,17,00,24,14.90
2010,08,17,00,25,14.90
2010,08,17,00,26,15.00
2010,08,17,00,27,15.00
2010,08,17,00,28,15.00
2010,08,17,00,29,15.00
2010,08,17,00,30,15.00
2010,08,17,00,31,15.00
2010,08,17,00,32,15.00
2010,08,17,00,33,15.00
2010,08,17,00,34,15.00
2010,08,17,00,35,15.00
2010,08,17,00,36,15.00
2010,08,17,00,37,15.00
2010,08,17,00,38,15.00
2010,08,17,00,39,15.00
2010,08,17,00,40,15.00
2010,08,17,00,41,15.00
2010,08,17,00,42,15.00
2010,08,17,00,43,15.00
2010,08,17,00,44,15.00
2010,08,17,00,45,15.00
2010,08,17,00,46,15.00
2010,08,17,00,47,15.00
2010,08,17,00,48,15.00
2010,08,17,00,49,15.00
2010,08,17,00,50,15.00
2010,08,17,00,51,15.00
2010,08,17,00,52,15.10
2010,08,17,00,53,15.10
2010,08,17,00,54,15.20
2010,08,17,00,55,15.20
2010,08,17,00,56,15.20
2010,08,17,00,57,15.20
2010,08,17,00,58,15.20
2010,08,17,00,59,15.30
2010,08,17,01,00,15.30
2010,08,17,01,01,15.30
2010,08,17,01,02,15.30
2010,08,17,01,03,15.30
2010,08,17,01,04,15.30
2010,08,17,01,05,15.30
2010,08,17,01,06,15.30
2010,08,17,01,07,15.30
2010,08,17,01,08,15.40
2010,08,17,01,09,15.40
2010,08,17,01,10,15.40
2010,08,17,01,11,15.40
2010,08,17,01,12,15.40
2010,08,17,01,13,15.40
2010,08,17,01,14,15.40
2010,08,17,01,15,15.40
2010,08,17,01,16,15.40
2010,08,17,01,17,15.40
2010,08,17,01,18,15.40
2010,08,17,01,19,15.40
2010,08,17,01,20,15.40
2010,08,17,01,21,15.40
2010,08,17,01,22,15.40
2010,08,17,01,23,15.40
2010,08,17,01,24,15.40
2010,08,17,01,25,15.40
2010,08,17,01,26,15.40
2010,08,17,01,27,15.40
2010,08,17,01,28,15.40
2010,08,17,01,29,15.40
2010,08,17,01,30,15.40
2010,08,17,01,31,15.50
2010,08,17,01,32,15.50
2010,08,17,01,33,15.50
2010,08,17,01,34,15.50
2010,08,17,01,35,15.50
2010,08,17,01,36,15.50
2010,08,17,01,37,15.50
2010,08,17,01,38,15.50
2010,08,17,01,39,15.50
2010,08,17,01,40,15.60
2010,08,17,01,41,15.60
2010,08,17,01,42,15.60
2010,08,17,01,43,15.60
2010,08,17,01,44,15.50
2010,08,17,01,45,15.50
2010,08,17,01,46,15.50
2010,08,17,01,47,15.50
2010,08,17,01,48,15.50
2010,08,17,01,49,15.40
2010,08,17,01,50,15.40
2010,08,17,01,51,15.40
2010,08,17,01,52,15.40
2010,08,17,01,53,15.40
2010,08,17,01,54,15.40
2010,08,17,01,55,15.30
2010,08,17,01,56,15.30
2010,08,17,01,57,15.30
2010,08,17,01,58,15.30
2010,08,17,01,59,15.30
2010,08,17,02,00,15.30
2010,08,17,02,01,15.30
2010,08,17,02,02,15.20
2010,08,17,02,03,15.20
2010,08,17,02,04,15.20
2010,08,17,02,05,15.10
2010,08,17,02,06,15.00
2010,08,17,02,07,15.00
2010,08,17,02,08,15.00
2010,08,17,02,09,14.90
2010,08,17,02,10,14.80
2010,08,17,02,11,14.70
2010,08,17,02,12,14.70
2010,08,17,02,13,14.60
2010,08,17,02,14,14.60
2010,08,17,02,15,14.50
2010,08,17,02,16,14.50
2010,08,17,02,17,14.40
2010,08,17,02,18,14.40
2010,08,17,02,19,14.40
2010,08,17,02,20,14.40
2010,08,17,02,21,14.30
2010,08,17,02,22,14.30
2010,08,17,02,23,14.20
2010,08,17,02,24,14.20
2010,08,17,02,25,14.20
2010,08,17,02,26,14.10
2010,08,17,02,27,14.10
2010,08,17,02,28,14.10
2010,08,17,02,29,14.00
2010,08,17,02,30,14.00
2010,08,17,02,31,13.90
2010,08,17,02,32,13.90
2010,08,17,02,33,13.90
2010,08,17,02,34,13.90
2010,08,17,02,35,13.80
2010,08,17,02,36,13.80
2010,08,17,02,37,13.80
2010,08,17,02,38,13.80
2010,08,17,02,39,13.80
2010,08,17,02,40,13.70
2010,08,17,02,41,13.70
2010,08,17,02,42,13.60
2010,08,17,02,43,13.60
2010,08,17,02,44,13.60
2010,08,17,02,45,13.60
2010,08,17,02,46,13.50
2010,08,17,02,47,13.50
2010,08,17,02,48,13.50
2010,08,17,02,49,13.50
2010,08,17,02,50,13.40
2010,08,17,02,51,13.40
2010,08,17,02,52,13.40
2010,08,17,02,53,13.40
2010,08,17,02,54,13.40
2010,08,17,02,55,13.40
2010,08,17,02,56,13.40
2010,08,17,02,57,13.40
2010,08,17,02,58,13.40
2010,08,17,02,59,13.40
2010,08,17,03,00,13.40
2010,08,17,03,01,13.40
2010,08,17,03,02,13.30
2010,08,17,03,03,13.30
2010,08,17,03,04,13.30
2010,08,17,03,05,13.30
2010,08,17,03,06,13.30
2010,08,17,03,07,13.30
2010,08,17,03,08,13.30
2010,08,17,03,09,13.30
2010,08,17,03,10,13.30
2010,08,17,03,11,13.20
2010,08,17,03,12,13.20
2010,08,17,03,13,13.20
2010,08,17,03,14,13.20
2010,08,17,03,15,13.20
2010,08,17,03,16,13.20
2010,08,17,03,17,13.20
2010,08,17,03,18,13.10
2010,08,17,03,19,13.10
2010,08,17,03,20,13.10
2010,08,17,03,21,13.10
2010,08,17,03,22,13.00
2010,08,17,03,23,12.90
2010,08,17,03,24,12.90
2010,08,17,03,25,12.90
2010,08,17,03,26,12.80
2010,08,17,03,27,12.80
2010,08,17,03,28,12.80
2010,08,17,03,29,12.70
2010,08,17,03,30,12.70
2010,08,17,03,31,12.70
2010,08,17,03,32,12.60
2010,08,17,03,33,12.60
2010,08,17,03,34,12.60
2010,08,17,03,35,12.60
2010,08,17,03,36,12.50
2010,08,17,03,37,12.50
2010,08,17,03,38,12.50
2010,08,17,03,39,12.50
2010,08,17,03,40,12.50
2010,08,17,03,41,12.40
2010,08,17,03,42,12.40
2010,08,17,03,43,12.40
2010,08,17,03,44,12.40
2010,08,17,03,45,12.40
2010,08,17,03,46,12.40
2010,08,17,03,47,12.40
2010,08,17,03,48,12.40
2010,08,17,03,49,12.40
2010,08,17,03,50,12.40
2010,08,17,03,51,12.40
2010,08,17,03,52,12.30
2010,08,17,03,53,12.30
2010,08,17,03,54,12.30
2010,08,17,03,55,12.30
2010,08,17,03,56,12.30
2010,08,17,03,57,12.30
2010,08,17,03,58,12.30
2010,08,17,03,59,12.30
2010,08,17,04,00,12.30
2010,08,17,04,01,12.30
2010,08,17,04,02,12.30
2010,08,17,04,03,12.30
2010,08,17,04,04,12.30
2010,08,17,04,05,12.30
2010,08,17,04,06,12.30
2010,08,17,04,07,12.40
2010,08,17,04,08,12.40
2010,08,17,04,09,12.50
2010,08,17,04,10,12.50
2010,08,17,04,11,12.50
2010,08,17,04,12,12.60
2010,08,17,04,13,12.60
2010,08,17,04,14,12.60
2010,08,17,04,15,12.60
2010,08,17,04,16,12.60
2010,08,17,04,17,12.60
2010,08,17,04,18,12.60
2010,08,17,04,19,12.60
2010,08,17,04,20,12.60
2010,08,17,04,21,12.60
2010,08,17,04,22,12.60
2010,08,17,04,23,12.70
2010,08,17,04,24,12.60
2010,08,17,04,25,12.70
2010,08,17,04,26,12.60
2010,08,17,04,27,12.60
2010,08,17,04,28,12.70
2010,08,17,04,29,12.60
2010,08,17,04,30,12.60
2010,08,17,04,31,12.60
2010,08,17,04,32,12.60
2010,08,17,04,33,12.60
2010,08,17,04,34,12.60
2010,08,17,04,35,12.60
2010,08,17,04,36,12.60
2010,08,17,04,37,12.60
2010,08,17,04,38,12.60
2010,08,17,04,39,12.60
2010,08,17,04,40,12.60
2010,08,17,04,41,12.60
2010,08,17,04,42,12.60
2010,08,17,04,43,12.60
2010,08,17,04,44,12.60
2010,08,17,04,45,12.60
2010,08,17,04,46,12.60
2010,08,17,04,47,12.60
2010,08,17,04,48,12.60
2010,08,17,04,49,12.60
2010,08,17,04,50,12.60
2010,08,17,04,51,12.60
2010,08,17,04,52,12.60
2010,08,17,04,53,12.60
2010,08,17,04,54,12.60
2010,08,17,04,55,12.60
2010,08,17,04,56,12.60
2010,08,17,04,57,12.60
2010,08,17,04,58,12.60
2010,08,17,04,59,12.60
2010,08,17,05,00,12.60
2010,08,17,05,01,12.60
2010,08,17,05,02,12.60
2010,08,17,05,03,12.60
2010,08,17,05,04,12.60
2010,08,17,05,05,12.60
2010,08,17,05,06,12.60
2010,08,17,05,07,12.60
2010,08,17,05,08,12.60
2010,08,17,05,09,12.60
2010,08,17,05,10,12.60
2010,08,17,05,11,12.60
2010,08,17,05,12,12.60
2010,08,17,05,13,12.60
2010,08,17,05,14,12.60
2010,08,17,05,15,12.60
2010,08,17,05,16,12.60
2010,08,17,05,17,12.60
2010,08,17,05,18,12.60
2010,08,17,05,19,12.60
2010,08,17,05,20,12.60
2010,08,17,05,21,12.60
2010,08,17,05,22,12.60
2010,08,17,05,23,12.60
2010,08,17,05,24,12.60
2010,08,17,05,25,12.60
2010,08,17,05,26,12.50
2010,08,17,05,27,12.40
2010,08,17,05,28,12.30
2010,08,17,05,29,12.30
2010,08,17,05,30,12.20
2010,08,17,05,31,12.20
2010,08,17,05,32,12.10
2010,08,17,05,33,12.10
2010,08,17,05,34,12.10
2010,08,17,05,35,12.10
2010,08,17,05,36,12.00
2010,08,17,05,37,12.00
2010,08,17,05,38,12.00
2010,08,17,05,39,12.00
2010,08,17,05,40,11.90
2010,08,17,05,41,11.90
2010,08,17,05,42,11.90
2010,08,17,05,43,11.90
2010,08,17,05,44,11.90
2010,08,17,05,45,11.90
2010,08,17,05,46,11.90
2010,08,17,05,47,11.90
2010,08,17,05,48,11.90
2010,08,17,05,49,11.90
2010,08,17,05,50,11.90
2010,08,17,05,51,11.90
2010,08,17,05,52,11.90
2010,08,17,05,53,11.90
2010,08,17,05,54,11.90
2010,08,17,05,55,11.90
2010,08,17,05,56,11.90
2010,08,17,05,57,11.90
2010,08,17,05,58,11.90
2010,08,17,05,59,11.90
2010,08,17,06,00,11.90
2010,08,17,06,01,11.90
2010,08,17,06,02,11.90
2010,08,17,06,03,11.90
2010,08,17,06,04,11.90
2010,08,17,06,05,11.90
2010,08,17,06,06,11.80
2010,08,17,06,07,11.80
2010,08,17,06,08,11.80
2010,08,17,06,09,11.80
2010,08,17,06,10,11.80
2010,08,17,06,11,11.80
2010,08,17,06,12,11.80
2010,08,17,06,13,11.80
2010,08,17,06,14,11.80
2010,08,17,06,15,11.80
2010,08,17,06,16,11.80
2010,08,17,06,17,11.80
2010,08,17,06,18,11.80
2010,08,17,06,19,11.80
2010,08,17,06,20,11.80
2010,08,17,06,21,11.80
2010,08,17,06,22,11.80
2010,08,17,06,23,11.80
2010,08,17,06,24,11.80
2010,08,17,06,25,11.80
2010,08,17,06,26,11.80
2010,08,17,06,27,11.80
2010,08,17,06,28,11.80
2010,08,17,06,29,11.80
2010,08,17,06,30,11.80
2010,08,17,06,31,11.80
2010,08,17,06,32,11.80
2010,08,17,06,33,11.80
2010,08,17,06,34,11.90
2010,08,17,06,35,11.90
2010,08,17,06,36,11.90
2010,08,17,06,37,11.90
2010,08,17,06,38,12.00
2010,08,17,06,39,12.00
2010,08,17,06,40,12.00
2010,08,17,06,41,12.10
2010,08,17,06,42,12.10
2010,08,17,06,43,12.10
2010,08,17,06,44,12.10
2010,08,17,06,45,12.20
2010,08,17,06,46,12.20
2010,08,17,06,47,12.30
2010,08,17,06,48,12.30
2010,08,17,06,49,12.40
2010,08,17,06,50,12.40
2010,08,17,06,51,12.40
2010,08,17,06,52,12.50
2010,08,17,06,53,12.50
2010,08,17,06,54,12.50
2010,08,17,06,55,12.50
2010,08,17,06,56,12.60
2010,08,17,06,57,12.60
2010,08,17,06,58,12.60
2010,08,17,06,59,12.60
2010,08,17,07,00,12.70
2010,08,17,07,01,12.70
2010,08,17,07,02,12.70
2010,08,17,07,03,12.70
2010,08,17,07,04,12.70
2010,08,17,07,05,12.70
2010,08,17,07,06,12.80
2010,08,17,07,07,12.80
2010,08,17,07,08,12.80
2010,08,17,07,09,12.80
2010,08,17,07,10,12.80
2010,08,17,07,11,12.80
2010,08,17,07,12,12.80
2010,08,17,07,13,12.80
2010,08,17,07,14,12.80
2010,08,17,07,15,12.70
2010,08,17,07,16,12.70
2010,08,17,07,17,12.70
2010,08,17,07,18,12.70
2010,08,17,07,19,12.70
2010,08,17,07,20,12.70
2010,08,17,07,21,12.70
2010,08,17,07,22,12.70
2010,08,17,07,23,12.70
2010,08,17,07,24,12.70
2010,08,17,07,25,12.70
2010,08,17,07,26,12.80
2010,08,17,07,27,12.80
2010,08,17,07,28,12.80
2010,08,17,07,29,12.90
2010,08,17,07,30,12.90
2010,08,17,07,31,13.00
2010,08,17,07,32,13.00
2010,08,17,07,33,13.10
2010,08,17,07,34,13.10
2010,08,17,07,35,13.20
2010,08,17,07,36,13.20
2010,08,17,07,37,13.30
2010,08,17,07,38,13.40
2010,08,17,07,39,13.40
2010,08,17,07,40,13.50
2010,08,17,07,41,13.60
2010,08,17,07,42,13.60
2010,08,17,07,43,13.70
2010,08,17,07,44,13.70
2010,08,17,07,45,13.70
2010,08,17,07,46,13.80
2010,08,17,07,47,13.80
2010,08,17,07,48,13.80
2010,08,17,07,49,13.90
2010,08,17,07,50,14.00
2010,08,17,07,51,14.00
2010,08,17,07,52,14.10
2010,08,17,07,53,14.10
2010,08,17,07,54,14.20
2010,08,17,07,55,14.20
2010,08,17,07,56,14.30
2010,08,17,07,57,14.30
2010,08,17,07,58,14.30
2010,08,17,07,59,14.40
2010,08,17,08,00,14.50
2010,08,17,08,01,14.50
2010,08,17,08,02,14.50
2010,08,17,08,03,14.60
2010,08,17,08,04,14.70
2010,08,17,08,05,14.70
2010,08,17,08,06,14.80
2010,08,17,08,07,14.90
2010,08,17,08,08,15.00
2010,08,17,08,09,15.00
2010,08,17,08,10,15.00
2010,08,17,08,11,15.00
2010,08,17,08,12,15.10
2010,08,17,08,13,15.20
2010,08,17,08,14,15.20
2010,08,17,08,15,15.30
2010,08,17,08,16,15.40
2010,08,17,08,17,15.40
2010,08,17,08,18,15.50
2010,08,17,08,19,15.60
2010,08,17,08,20,15.60
2010,08,17,08,21,15.70
2010,08,17,08,22,15.70
2010,08,17,08,23,15.70
2010,08,17,08,24,15.80
2010,08,17,08,25,15.80
2010,08,17,08,26,15.80
2010,08,17,08,27,15.90
2010,08,17,08,28,15.90
2010,08,17,08,29,15.90
2010,08,17,08,30,15.90
2010,08,17,08,31,15.90
2010,08,17,08,32,15.90
2010,08,17,08,33,16.00
2010,08,17,08,34,16.00
2010,08,17,08,35,16.00
2010,08,17,08,36,16.00
2010,08,17,08,37,16.00
2010,08,17,08,38,16.00
2010,08,17,08,39,16.00
2010,08,17,08,40,16.00
2010,08,17,08,41,16.00
2010,08,17,08,42,16.00
2010,08,17,08,43,16.00
2010,08,17,08,44,16.10
2010,08,17,08,45,16.10
2010,08,17,08,46,16.20
2010,08,17,08,47,16.20
2010,08,17,08,48,16.20
2010,08,17,08,49,16.10
2010,08,17,08,50,16.10
2010,08,17,08,51,16.10
2010,08,17,08,52,16.10
2010,08,17,08,53,16.10
2010,08,17,08,54,16.10
2010,08,17,08,55,16.10
2010,08,17,08,56,16.00
2010,08,17,08,57,16.00
2010,08,17,08,58,16.00
2010,08,17,08,59,15.90
2010,08,17,09,00,15.90
2010,08,17,09,01,15.90
2010,08,17,09,02,15.90
2010,08,17,09,03,15.90
2010,08,17,09,04,15.90
2010,08,17,09,05,16.00
2010,08,17,09,06,16.10
2010,08,17,09,07,16.10
2010,08,17,09,08,16.20
2010,08,17,09,09,16.30
2010,08,17,09,10,16.30
2010,08,17,09,11,16.30
2010,08,17,09,12,16.40
2010,08,17,09,13,16.40
2010,08,17,09,14,16.50
2010,08,17,09,15,16.60
2010,08,17,09,16,16.70
2010,08,17,09,17,16.80
2010,08,17,09,18,16.90
2010,08,17,09,19,16.90
2010,08,17,09,20,16.90
2010,08,17,09,21,16.90
2010,08,17,09,22,16.90
2010,08,17,09,23,16.90
2010,08,17,09,24,16.90
2010,08,17,09,25,16.90
2010,08,17,09,26,16.90
2010,08,17,09,27,16.90
2010,08,17,09,28,17.00
2010,08,17,09,29,17.10
2010,08,17,09,30,17.10
2010,08,17,09,31,17.10
2010,08,17,09,32,17.10
2010,08,17,09,33,17.20
2010,08,17,09,34,17.30
2010,08,17,09,35,17.30
2010,08,17,09,36,17.30
2010,08,17,09,37,17.40
2010,08,17,09,38,17.40
2010,08,17,09,39,17.40
2010,08,17,09,40,17.50
2010,08,17,09,41,17.50
2010,08,17,09,42,17.60
2010,08,17,09,43,17.70
2010,08,17,09,44,17.70
2010,08,17,09,45,17.80
2010,08,17,09,46,17.80
2010,08,17,09,47,17.80
2010,08,17,09,48,17.80
2010,08,17,09,49,17.80
2010,08,17,09,50,17.80
2010,08,17,09,51,17.80
2010,08,17,09,52,17.70
2010,08,17,09,53,17.70
2010,08,17,09,54,17.70
2010,08,17,09,55,17.70
2010,08,17,09,56,17.70
2010,08,17,09,57,17.70
2010,08,17,09,58,17.80
2010,08,17,09,59,17.80
2010,08,17,10,00,17.90
2010,08,17,10,01,17.90
2010,08,17,10,02,18.00
2010,08,17,10,03,18.10
2010,08,17,10,04,18.10
2010,08,17,10,05,18.20
2010,08,17,10,06,18.20
2010,08,17,10,07,18.30
2010,08,17,10,08,18.30
2010,08,17,10,09,18.40
2010,08,17,10,10,18.50
2010,08,17,10,11,18.50
2010,08,17,10,12,18.60
2010,08,17,10,13,18.60
2010,08,17,10,14,18.60
2010,08,17,10,15,18.60
2010,08,17,10,16,18.70
2010,08,17,10,17,18.80
2010,08,17,10,18,18.80
2010,08,17,10,19,18.80
2010,08,17,10,20,18.80
2010,08,17,10,21,18.80
2010,08,17,10,22,18.90
2010,08,17,10,23,19.00
2010,08,17,10,24,19.00
2010,08,17,10,25,19.00
2010,08,17,10,26,19.10
2010,08,17,10,27,19.10
2010,08,17,10,28,19.10
2010,08,17,10,29,19.20
2010,08,17,10,30,19.20
2010,08,17,10,31,19.10
2010,08,17,10,32,19.10
2010,08,17,10,33,19.20
2010,08,17,10,34,19.20
2010,08,17,10,35,19.30
2010,08,17,10,36,19.30
2010,08,17,10,37,19.40
2010,08,17,10,38,19.40
2010,08,17,10,39,19.40
2010,08,17,10,40,19.40
2010,08,17,10,41,19.30
2010,08,17,10,42,19.30
2010,08,17,10,43,19.30
2010,08,17,10,44,19.40
2010,08,17,10,45,19.40
2010,08,17,10,46,19.40
2010,08,17,10,47,19.40
2010,08,17,10,48,19.50
2010,08,17,10,49,19.50
2010,08,17,10,50,19.60
2010,08,17,10,51,19.60
2010,08,17,10,52,19.60
2010,08,17,10,53,19.60
2010,08,17,10,54,19.70
2010,08,17,10,55,19.80
2010,08,17,10,56,19.80
2010,08,17,10,57,19.80
2010,08,17,10,58,19.80
2010,08,17,10,59,19.80
2010,08,17,11,00,19.90
2010,08,17,11,01,19.90
2010,08,17,11,02,20.00
2010,08,17,11,03,20.10
2010,08,17,11,04,20.10
2010,08,17,11,05,20.20
2010,08,17,11,06,20.20
2010,08,17,11,07,20.20
2010,08,17,11,08,20.20
2010,08,17,11,09,20.20
2010,08,17,11,10,20.20
2010,08,17,11,11,20.30
2010,08,17,11,12,20.30
2010,08,17,11,13,20.30
2010,08,17,11,14,20.30
2010,08,17,11,15,20.40
2010,08,17,11,16,20.40
2010,08,17,11,17,20.40
2010,08,17,11,18,20.40
2010,08,17,11,19,20.30
2010,08,17,11,20,20.40
2010,08,17,11,21,20.40
2010,08,17,11,22,20.40
2010,08,17,11,23,20.40
2010,08,17,11,24,20.50
2010,08,17,11,25,20.60
2010,08,17,11,26,20.60
2010,08,17,11,27,20.60
2010,08,17,11,28,20.70
2010,08,17,11,29,20.70
2010,08,17,11,30,20.70
2010,08,17,11,31,20.70
2010,08,17,11,32,20.70
2010,08,17,11,33,20.70
2010,08,17,11,34,20.70
2010,08,17,11,35,20.80
2010,08,17,11,36,20.80
2010,08,17,11,37,20.80
2010,08,17,11,38,20.90
2010,08,17,11,39,20.90
2010,08,17,11,40,20.80
2010,08,17,11,41,20.90
2010,08,17,11,42,20.90
2010,08,17,11,43,21.00
2010,08,17,11,44,21.10
2010,08,17,11,45,21.10
2010,08,17,11,46,21.00
2010,08,17,11,47,21.00
2010,08,17,11,48,21.10
2010,08,17,11,49,21.10
2010,08,17,11,50,21.10
2010,08,17,11,51,21.20
2010,08,17,11,52,21.20
2010,08,17,11,53,21.30
2010,08,17,11,54,21.40
2010,08,17,11,55,21.50
2010,08,17,11,56,21.50
2010,08,17,11,57,21.60
2010,08,17,11,58,21.70
2010,08,17,11,59,21.70
2010,08,17,12,00,21.80
2010,08,17,12,01,21.90
2010,08,17,12,02,22.00
2010,08,17,12,03,22.00
2010,08,17,12,04,22.00
2010,08,17,12,05,22.00
2010,08,17,12,06,22.10
2010,08,17,12,07,22.10
2010,08,17,12,08,22.00
2010,08,17,12,09,21.90
2010,08,17,12,10,21.80
2010,08,17,12,11,21.80
2010,08,17,12,12,21.80
2010,08,17,12,13,21.80
2010,08,17,12,14,21.80
2010,08,17,12,15,21.80
2010,08,17,12,16,21.90
2010,08,17,12,17,21.90
2010,08,17,12,18,21.90
2010,08,17,12,19,21.90
2010,08,17,12,20,21.90
2010,08,17,12,21,21.90
2010,08,17,12,22,22.00
2010,08,17,12,23,22.00
2010,08,17,12,24,22.00
2010,08,17,12,25,22.20
2010,08,17,12,26,22.30
2010,08,17,12,27,22.30
2010,08,17,12,28,22.30
2010,08,17,12,29,22.20
2010,08,17,12,30,22.10
2010,08,17,12,31,22.00
2010,08,17,12,32,22.00
2010,08,17,12,33,22.00
2010,08,17,12,34,22.00
2010,08,17,12,35,22.10
2010,08,17,12,36,22.10
2010,08,17,12,37,22.20
2010,08,17,12,38,22.40
2010,08,17,12,39,22.50
2010,08,17,12,40,22.60
2010,08,17,12,41,22.60
2010,08,17,12,42,22.60
2010,08,17,12,43,22.60
2010,08,17,12,44,22.60
2010,08,17,12,45,22.60
2010,08,17,12,46,22.60
2010,08,17,12,47,22.60
2010,08,17,12,48,22.60
2010,08,17,12,49,22.60
2010,08,17,12,50,22.60
2010,08,17,12,51,22.70
2010,08,17,12,52,22.80
2010,08,17,12,53,22.80
2010,08,17,12,54,22.80
2010,08,17,12,55,22.90
2010,08,17,12,56,22.90
2010,08,17,12,57,22.90
2010,08,17,12,58,22.90
2010,08,17,12,59,22.90
2010,08,17,13,00,22.90
2010,08,17,13,01,22.90
2010,08,17,13,02,23.00
2010,08,17,13,03,23.10
2010,08,17,13,04,23.20
2010,08,17,13,05,23.30
2010,08,17,13,06,23.30
2010,08,17,13,07,23.30
2010,08,17,13,08,23.30
2010,08,17,13,09,23.30
2010,08,17,13,10,23.30
2010,08,17,13,11,23.30
2010,08,17,13,12,23.20
2010,08,17,13,13,23.20
2010,08,17,13,14,23.20
2010,08,17,13,15,23.30
2010,08,17,13,16,23.30
2010,08,17,13,17,23.40
2010,08,17,13,18,23.50
2010,08,17,13,19,23.50
2010,08,17,13,20,23.60
2010,08,17,13,21,23.60
2010,08,17,13,22,23.60
2010,08,17,13,23,23.70
2010,08,17,13,24,23.70
2010,08,17,13,25,23.80
2010,08,17,13,26,23.90
2010,08,17,13,27,24.00
2010,08,17,13,28,24.10
2010,08,17,13,29,24.10
2010,08,17,13,30,24.20
2010,08,17,13,31,24.20
2010,08,17,13,32,24.20
2010,08,17,13,33,24.20
2010,08,17,13,34,24.10
2010,08,17,13,35,24.10
2010,08,17,13,36,24.10
2010,08,17,13,37,24.10
2010,08,17,13,38,24.10
2010,08,17,13,39,24.10
2010,08,17,13,40,24.00
2010,08,17,13,41,24.00
2010,08,17,13,42,24.00
2010,08,17,13,43,24.00
2010,08,17,13,44,24.10
2010,08,17,13,45,24.10
2010,08,17,13,46,24.10
2010,08,17,13,47,24.10
2010,08,17,13,48,24.20
2010,08,17,13,49,24.20
2010,08,17,13,50,24.20
2010,08,17,13,51,24.30
2010,08,17,13,52,24.40
2010,08,17,13,53,24.50
2010,08,17,13,54,24.60
2010,08,17,13,55,24.60
2010,08,17,13,56,24.60
2010,08,17,13,57,24.50
2010,08,17,13,58,24.50
2010,08,17,13,59,24.50
2010,08,17,14,00,24.50
2010,08,17,14,01,24.60
2010,08,17,14,02,24.50
2010,08,17,14,03,24.50
2010,08,17,14,04,24.40
2010,08,17,14,05,24.40
2010,08,17,14,06,24.30
2010,08,17,14,07,24.20
2010,08,17,14,08,24.10
2010,08,17,14,09,24.10
2010,08,17,14,10,24.20
2010,08,17,14,11,24.20
2010,08,17,14,12,24.20
2010,08,17,14,13,24.20
2010,08,17,14,14,24.20
2010,08,17,14,15,24.30
2010,08,17,14,16,24.30
2010,08,17,14,17,24.30
2010,08,17,14,18,24.20
2010,08,17,14,19,24.30
2010,08,17,14,20,24.40
2010,08,17,14,21,24.40
2010,08,17,14,22,24.50
2010,08,17,14,23,24.60
2010,08,17,14,24,24.60
2010,08,17,14,25,24.80
2010,08,17,14,26,24.70
2010,08,17,14,27,24.70
2010,08,17,14,28,24.60
2010,08,17,14,29,24.60
2010,08,17,14,30,24.50
2010,08,17,14,31,24.50
2010,08,17,14,32,24.40
2010,08,17,14,33,24.30
2010,08,17,14,34,24.30
2010,08,17,14,35,24.30
2010,08,17,14,36,24.30
2010,08,17,14,37,24.30
2010,08,17,14,38,24.30
2010,08,17,14,39,24.30
2010,08,17,14,40,24.40
2010,08,17,14,41,24.40
2010,08,17,14,42,24.50
2010,08,17,14,43,24.50
2010,08,17,14,44,24.60
2010,08,17,14,45,24.70
2010,08,17,14,46,24.70
2010,08,17,14,47,24.70
2010,08,17,14,48,24.60
2010,08,17,14,49,24.60
2010,08,17,14,50,24.60
2010,08,17,14,51,24.60
2010,08,17,14,52,24.50
2010,08,17,14,53,24.50
2010,08,17,14,54,24.50
2010,08,17,14,55,24.50
2010,08,17,14,56,24.60
2010,08,17,14,57,24.60
2010,08,17,14,58,24.60
2010,08,17,14,59,24.70
2010,08,17,15,00,24.80
2010,08,17,15,01,24.80
2010,08,17,15,02,24.80
2010,08,17,15,03,24.70
2010,08,17,15,04,24.70
2010,08,17,15,05,24.70
2010,08,17,15,06,24.80
2010,08,17,15,07,24.80
2010,08,17,15,08,24.80
2010,08,17,15,09,24.70
2010,08,17,15,10,24.60
2010,08,17,15,11,24.60
2010,08,17,15,12,24.60
2010,08,17,15,13,24.60
2010,08,17,15,14,24.50
2010,08,17,15,15,24.50
2010,08,17,15,16,24.40
2010,08,17,15,17,24.40
2010,08,17,15,18,24.40
2010,08,17,15,19,24.40
2010,08,17,15,20,24.40
2010,08,17,15,21,24.30
2010,08,17,15,22,24.30
2010,08,17,15,23,24.30
2010,08,17,15,24,24.20
2010,08,17,15,25,24.20
2010,08,17,15,26,24.20
2010,08,17,15,27,24.20
2010,08,17,15,28,24.20
2010,08,17,15,29,24.30
2010,08,17,15,30,24.20
2010,08,17,15,31,24.20
2010,08,17,15,32,24.30
2010,08,17,15,33,24.30
2010,08,17,15,34,24.30
2010,08,17,15,35,24.20
2010,08,17,15,36,24.30
2010,08,17,15,37,24.30
2010,08,17,15,38,24.30
2010,08,17,15,39,24.40
2010,08,17,15,40,24.40
2010,08,17,15,41,24.40
2010,08,17,15,42,24.40
2010,08,17,15,43,24.40
2010,08,17,15,44,24.50
2010,08,17,15,45,24.60
2010,08,17,15,46,24.70
2010,08,17,15,47,24.70
2010,08,17,15,48,24.90
2010,08,17,15,49,25.00
2010,08,17,15,50,25.20
2010,08,17,15,51,25.30
2010,08,17,15,52,25.30
2010,08,17,15,53,25.40
2010,08,17,15,54,25.40
2010,08,17,15,55,25.40
2010,08,17,15,56,25.30
2010,08,17,15,57,25.20
2010,08,17,15,58,25.20
2010,08,17,15,59,25.20
2010,08,17,16,00,25.20
2010,08,17,16,01,25.10
2010,08,17,16,02,24.90
2010,08,17,16,03,24.80
2010,08,17,16,04,24.80
2010,08,17,16,05,24.90
2010,08,17,16,06,24.90
2010,08,17,16,07,24.70
2010,08,17,16,08,24.60
2010,08,17,16,09,24.60
2010,08,17,16,10,24.60
2010,08,17,16,11,24.50
2010,08,17,16,12,24.50
2010,08,17,16,13,24.60
2010,08,17,16,14,24.70
2010,08,17,16,15,24.60
2010,08,17,16,16,24.50
2010,08,17,16,17,24.50
2010,08,17,16,18,24.40
2010,08,17,16,19,24.40
2010,08,17,16,20,24.30
2010,08,17,16,21,24.20
2010,08,17,16,22,24.10
2010,08,17,16,23,24.10
2010,08,17,16,24,24.00
2010,08,17,16,25,24.00
2010,08,17,16,26,23.90
2010,08,17,16,27,23.90
2010,08,17,16,28,23.90
2010,08,17,16,29,23.70
2010,08,17,16,30,23.60
2010,08,17,16,31,23.50
2010,08,17,16,32,23.40
2010,08,17,16,33,23.50
2010,08,17,16,34,23.60
2010,08,17,16,35,23.60
2010,08,17,16,36,23.60
2010,08,17,16,37,23.50
2010,08,17,16,38,23.50
2010,08,17,16,39,23.60
2010,08,17,16,40,23.60
2010,08,17,16,41,23.60
2010,08,17,16,42,23.60
2010,08,17,16,43,23.60
2010,08,17,16,44,23.60
2010,08,17,16,45,23.50
2010,08,17,16,46,23.50
2010,08,17,16,47,23.50
2010,08,17,16,48,23.60
2010,08,17,16,49,23.60
2010,08,17,16,50,23.70
2010,08,17,16,51,23.70
2010,08,17,16,52,23.70
2010,08,17,16,53,23.70
2010,08,17,16,54,23.70
2010,08,17,16,55,23.60
2010,08,17,16,56,23.60
2010,08,17,16,57,23.60
2010,08,17,16,58,23.60
2010,08,17,16,59,23.60
2010,08,17,17,00,23.60
2010,08,17,17,01,23.50
2010,08,17,17,02,23.50
2010,08,17,17,03,23.50
2010,08,17,17,04,23.50
2010,08,17,17,05,23.50
2010,08,17,17,06,23.60
2010,08,17,17,07,23.50
2010,08,17,17,08,23.40
2010,08,17,17,09,23.40
2010,08,17,17,10,23.40
2010,08,17,17,11,23.40
2010,08,17,17,12,23.50
2010,08,17,17,13,23.50
2010,08,17,17,14,23.60
2010,08,17,17,15,23.60
2010,08,17,17,16,23.70
2010,08,17,17,17,23.80
2010,08,17,17,18,23.90
2010,08,17,17,19,24.00